Content
SEND FEEDBACK

Daily
Averages
Monthly
Summary
United States of America

ST. LOUIS - SAINT LOUIS UNIVERSITY, MISSOURI


Home > North America > United States > Missouri
Elevation: 580 feet     Latitude: 38 38N     Longitude: 090 14W

WEATHER
 
SELECT A DAY
Number of Records: 189,896;   Date Range: 1/1/95 - 11/22/14
 
SHARE

PRINT THIS DATA

[ ← Previous Day ]
WEATHER ALMANAC - APRIL 28, 2013
[ Next Day → ]
[ °C ]   °F
Weather ElementAverageHighLow
Temperature54.2 °F57.9 °F (3:53 pm)48 °F (11:53 pm)
Dewpoint50.2 °F52 °F (1:53 am)46 °F (11:53 pm)
Humidity87.1 %100 % (5:48 am)72 % (3:53 pm)
Barometer29.93 in29.97 in (11:53 am)29.89 in (3:53 am)
Wind Speed5.9 mph11.5 mph (1:53 pm)
Weather ElementAverage
Visibility6.7 mi
Wind DirectionSW (229.4 °)

Weather ElementTotal
Precipitation---
Heating Degree Days12.1 (Base 65)
Growing Degree Days3 (Base 50)
Averaged from 31 records on April 28, 2013
WEATHER CONDITIONS BREAKOUT
WIND DIRECTION BREAKOUT
WEATHER BY HOUR - APRIL 28, 2013
[ °C ]   °F
Local TimeTemperatureDewpointHumidityBarometerVisibilityWind DirectionWind SpeedGust SpeedPrecipitationEventsConditions
1:18 AM53.6 °F51.8 °F94 %29.92 in2.5 miWest (280°)4.6 mphOvercast
1:25 AM53.6 °F51.8 °F94 %29.92 in3.0 miWNW (290°)4.6 mphOvercast
1:34 AM53.6 °F51.8 °F94 %29.91 in2.5 miWNW (290°)4.6 mphOvercast
1:53 AM53.1 °F52.0 °F96 %29.91 in2.5 miWNW (290°)4.6 mphOvercast
2:01 AM53.6 °F51.8 °F94 %29.90 in3.0 miWNW (290°)4.6 mphOvercast
2:53 AM53.1 °F51.1 °F93 %29.90 in6.0 miWest (280°)6.9 mphOvercast
3:41 AM53.6 °F51.8 °F94 %29.90 in4.0 miWNW (300°)10.4 mphOvercast
3:53 AM52.0 °F51.1 °F97 %29.89 in3.0 miWNW (300°)9.2 mphOvercast
4:53 AM52.0 °F51.1 °F97 %29.90 in5.0 miWNW (290°)6.9 mphOvercast
5:48 AM51.8 °F51.8 °F100 %29.91 in5.0 miWNW (290°)6.9 mphOvercast
5:53 AM52.0 °F51.1 °F97 %29.91 in5.0 miWest (280°)6.9 mphOvercast
6:53 AM53.1 °F51.1 °F93 %29.93 in3.0 miWNW (290°)8.1 mphOvercast
7:53 AM53.1 °F51.1 °F93 %29.95 in4.0 miWest (280°)6.9 mphOvercast
8:53 AM53.1 °F51.1 °F93 %29.94 in8.0 miWest (280°)6.9 mphOvercast
9:53 AM54.0 °F51.1 °F90 %29.96 in6.0 miWNW (300°)6.9 mphOvercast
10:15 AM53.6 °F50.0 °F88 %29.96 in6.0 miWNW (290°)10.4 mphOvercast
10:53 AM55.0 °F50.0 °F83 %29.96 in8.0 miWNW (300°)5.8 mphOvercast
11:53 AM55.9 °F50.0 °F80 %29.97 in10.0 miWNW (300°)9.2 mphOvercast
12:53 PM57.0 °F51.1 °F81 %29.96 in10.0 miWNW (290°)10.4 mphOvercast
1:53 PM57.0 °F48.9 °F74 %29.95 in10.0 miWNW (290°)11.5 mphOvercast
2:53 PM57.0 °F48.9 °F74 %29.95 in10.0 miWNW (290°)8.1 mphOvercast
3:53 PM57.9 °F48.9 °F72 %29.94 in10.0 miVariable4.6 mphOvercast
4:53 PM57.9 °F50.0 °F75 %29.93 in10.0 miWSW (250°)8.1 mphOvercast
5:53 PM57.0 °F48.9 °F74 %29.93 in10.0 miWest (270°)6.9 mphOvercast
6:53 PM57.0 °F48.9 °F74 %29.92 in10.0 miSW (230°)5.8 mphOvercast
7:53 PM55.9 °F48.9 °F77 %29.93 in10.0 miWest (270°)3.5 mphOvercast
8:53 PM55.9 °F48.9 °F77 %29.94 in10.0 miCalmOvercast
9:53 PM55.0 °F50.0 °F83 %29.94 in10.0 miCalmOvercast
10:15 PM53.6 °F48.2 °F82 %29.94 in10.0 miCalmScattered Clouds
10:53 PM50.0 °F48.0 °F93 %29.94 in10.0 miCalmClear
11:53 PM48.0 °F46.0 °F93 %29.94 in1.8 miCalmClear
Hourly data recorded from KCPS, located miles away from St. Louis - Saint Louis University, Missouri







STORIES FROM OUR PARTNERS